Theta_e
321 325 324 324 323 322 319 319 320 322 324 327 328 328 328 327 325 325 324 320 315 315 319 317 315 315 315 314 315 312 310 310 310 310 310 310 309 308 308 307 306 305 303 301 302 303 303 305 309 310 311 310 308 309 310 310 310 310 311 311 310 309 311 313 313 312 312 312 310 308 308 307 305 305 307 307 307 308 308 308 309 309 309 309 309 308
319 323 325 325 321 319 319 318 317 318 319 320 322 323 324 324 324 323 322 318 314 315 321 320 316 315 314 314 314 313 312 311 310 310 310 310 309 308 307 307 307 305 302 301 301 302 302 305 307 309 310 309 307 307 308 309 308 307 309 310 309 307 307 308 310 309 309 311 311 309 307 305 303 303 304 305 304 305 305 306 306 305 305 305 305 305
320 322 322 320 318 318 318 318 317 318 319 319 320 319 322 324 322 323 324 318 314 316 324 324 319 317 317 315 315 315 314 312 310 310 310 310 309 308 308 307 306 306 304 302 301 301 302 304 306 307 308 308 308 307 307 307 306 305 306 307 306 305 304 304 306 307 307 307 308 308 305 305 304 301 302 302 301 302 303 302 301 301 301 301 300 299
324 326 322 316 317 319 318 319 318 317 318 320 321 319 322 324 321 324 325 318 316 317 320 322 319 318 317 317 317 316 314 312 311 311 310 310 310 308 307 307 306 305 304 303 302 301 301 304 305 306 307 307 307 306 306 306 305 304 304 304 304 304 305 305 306 307 308 307 305 304 303 304 304 300 299 299 298 299 299 297 296 296 296 295 295 294
323 326 321 316 318 319 319 320 320 320 321 322 322 321 321 322 322 324 323 321 325 326 320 319 321 323 322 320 319 318 314 313 313 313 312 310 310 310 308 307 306 305 303 303 303 301 300 302 304 305 307 307 306 305 306 306 305 304 304 303 303 304 305 306 307 308 309 307 304 301 299 299 298 295 295 296 294 294 294 293 293 292 292 292 292 292
320 320 320 321 319 319 320 321 322 324 323 323 324 322 320 322 323 324 323 322 330 334 323 318 326 335 335 327 322 321 317 316 315 314 313 310 310 311 309 308 306 304 303 302 302 301 300 301 303 305 306 307 306 305 305 306 306 306 304 303 302 303 304 305 306 306 308 307 305 303 299 295 293 291 292 293 292 291 291 291 291 291 291 292 292 292
319 318 321 327 324 322 322 321 323 323 320 324 327 324 321 322 323 325 326 324 329 333 323 320 328 334 332 327 326 327 324 322 320 316 313 311 311 310 308 308 306 304 303 302 302 301 300 301 302 304 305 306 306 305 305 305 305 306 304 303 303 303 303 305 305 304 305 306 304 304 302 297 294 291 289 290 290 290 290 290 290 290 290 291 291 291
320 319 320 325 326 326 324 322 324 321 321 327 327 325 324 321 323 325 325 326 329 329 325 325 328 327 325 323 325 328 328 327 324 319 315 311 310 310 308 307 305 304 303 302 302 301 299 300 302 304 305 305 305 305 305 304 304 305 303 303 303 303 303 304 304 303 304 305 303 301 299 296 295 292 289 289 289 289 290 290 289 290 289 290 290 290
320 323 322 322 324 325 324 324 324 320 322 327 324 324 326 324 327 328 326 327 326 325 329 329 325 325 328 326 323 323 324 327 325 322 319 314 311 309 307 307 305 304 302 302 302 301 300 300 302 304 304 303 304 304 304 304 304 303 302 302 303 302 302 302 302 302 302 303 303 301 297 293 291 290 289 288 289 289 289 289 289 289 289 289 289 289
319 321 321 321 322 322 324 326 324 321 321 322 322 324 327 326 330 333 332 331 329 327 329 330 325 325 329 329 325 322 323 327 325 322 319 316 313 309 307 306 305 303 302 301 301 300 300 300 301 304 304 302 302 303 303 303 303 302 301 301 302 301 301 300 300 300 299 300 301 300 297 293 289 288 288 288 288 288 288 288 288 288 288 288 288 288
319 316 315 319 321 321 324 323 321 323 320 320 326 330 331 330 331 334 332 329 330 328 327 330 327 325 328 329 326 324 326 328 324 323 324 319 314 310 307 305 304 303 302 301 301 300 299 300 301 303 302 300 301 302 302 302 301 301 300 300 300 298 297 298 298 299 298 297 299 298 296 292 289 288 288 288 287 287 288 288 288 288 288 288 288 288
320 317 318 319 320 322 325 320 318 321 319 323 334 335 330 331 331 332 331 329 330 329 327 329 325 324 327 326 324 325 324 323 322 324 329 327 317 309 306 304 303 303 302 301 301 300 298 298 300 301 301 299 299 300 300 300 299 299 299 298 298 296 295 296 296 297 297 295 295 295 293 291 289 289 288 288 288 288 288 288 287 287 287 287 287 287
321 323 322 317 316 321 326 324 321 320 319 324 332 330 327 329 329 329 330 329 329 326 322 321 322 323 325 325 326 326 323 324 324 322 324 324 317 310 306 304 303 302 301 301 301 300 298 297 298 299 299 298 298 299 299 298 297 297 297 297 297 296 295 295 295 295 295 293 293 292 291 290 289 288 289 289 288 288 288 288 287 287 287 287 287 288
324 324 321 317 318 321 322 323 323 322 322 322 325 327 327 328 331 333 331 327 327 326 319 316 321 324 325 326 324 323 323 326 325 321 320 319 316 311 306 304 303 302 301 301 300 300 298 297 297 298 298 297 297 298 298 297 297 296 296 296 297 296 295 295 295 294 293 292 291 291 290 289 288 288 289 289 289 289 288 288 288 288 288 288 288 288
325 324 322 319 321 322 320 320 324 325 322 319 322 326 325 327 333 336 333 330 330 328 320 316 322 328 330 328 321 319 323 325 325 320 316 315 312 309 306 304 303 301 301 300 300 300 298 296 297 297 297 297 297 297 297 297 297 296 296 297 297 296 295 295 294 293 292 291 290 289 289 288 288 289 289 289 289 289 289 288 288 288 288 288 288 288
321 325 327 320 319 321 319 319 324 326 322 320 324 326 325 328 330 327 327 327 327 327 322 319 324 327 327 324 319 318 320 320 320 318 315 315 311 308 307 304 302 301 300 300 300 299 297 296 296 297 297 297 297 296 297 297 296 296 296 296 296 296 295 294 294 293 291 290 289 289 288 288 289 289 289 289 288 289 289 289 289 288 288 288 288 287
322 326 324 317 318 320 318 321 323 324 324 321 321 324 323 323 324 323 324 321 321 326 326 322 324 326 325 323 319 318 321 320 318 318 317 315 310 308 306 303 302 301 300 299 299 298 296 295 296 296 297 297 296 296 296 296 296 297 296 296 296 295 294 294 293 292 291 290 289 288 288 288 289 289 289 289 288 288 288 288 289 289 288 288 287 287
324 327 322 316 320 318 315 321 323 320 321 323 324 324 320 320 325 329 329 326 326 328 327 324 324 326 327 325 320 316 319 321 320 319 317 312 308 308 305 302 302 301 300 299 298 297 295 295 295 296 296 297 296 296 296 296 296 297 296 296 295 294 293 293 293 291 290 289 289 288 288 288 289 289 289 288 288 288 288 288 288 288 288 287 287 287
322 324 322 316 319 317 313 320 323 317 316 322 326 323 322 327 329 327 328 330 330 329 329 326 323 322 322 324 323 320 320 322 320 318 317 314 311 307 304 303 302 301 300 299 298 297 295 294 295 295 295 296 296 295 295 296 296 296 296 295 295 294 293 293 292 291 290 290 289 289 288 288 288 288 288 288 288 288 289 289 288 288 287 287 287 286
322 323 324 316 315 316 315 318 323 320 316 317 320 319 321 326 327 326 327 329 330 330 331 329 325 324 324 323 325 323 323 324 320 317 318 316 311 305 303 303 301 300 300 298 297 297 295 294 294 295 295 295 295 295 295 295 295 295 295 294 294 293 292 291 291 290 290 289 289 288 288 288 288 288 288 288 288 289 289 288 288 288 287 287 286 286
320 322 324 318 313 317 320 320 321 321 318 317 320 321 320 320 322 325 325 325 330 331 332 331 327 327 326 323 323 323 322 322 320 320 320 315 309 305 303 302 301 300 299 298 297 296 294 294 294 294 295 295 295 295 294 294 295 295 294 293 293 292 291 291 291 290 290 289 289 288 288 288 288 288 288 288 288 289 288 288 288 287 287 286 286 286
320 324 326 323 318 319 323 321 317 318 319 319 320 321 320 319 321 325 324 325 328 327 330 330 327 326 324 321 322 322 319 318 317 318 320 316 310 307 303 302 301 300 299 298 297 296 294 293 293 293 294 294 294 294 293 294 294 294 293 292 292 292 291 291 290 290 290 289 289 289 288 288 288 288 288 288 288 288 288 287 287 287 287 286 286 286
324 328 328 325 321 320 320 316 314 318 320 318 320 322 321 319 320 324 325 325 325 324 326 326 325 326 322 319 324 323 319 319 316 314 316 316 311 307 303 302 301 300 299 298 297 295 294 293 292 292 293 293 293 293 293 293 293 293 292 292 291 291 291 291 291 290 290 290 289 289 289 289 288 288 288 288 288 288 288 287 287 287 286 286 286 286
322 324 324 324 322 320 320 317 315 317 318 317 321 323 321 319 320 323 325 325 326 325 324 324 325 324 318 315 320 319 317 320 318 314 314 314 312 308 305 302 301 300 299 298 297 295 293 293 292 292 292 293 293 292 292 292 292 292 292 291 291 291 291 291 291 290 290 290 290 289 289 289 288 288 288 288 288 287 287 287 286 286 286 286 286 286
320 322 324 325 325 324 324 322 318 317 317 318 321 320 318 319 320 322 322 323 324 325 324 325 326 322 318 315 316 317 317 319 319 316 313 313 313 310 305 302 301 300 299 298 297 295 293 292 291 291 292 292 292 292 292 292 292 291 291 291 291 291 291 291 290 290 290 290 289 289 289 288 288 288 288 288 287 287 287 287 286 286 286 286 286 285
322 326 324 324 326 327 326 325 322 320 318 318 321 320 317 319 320 320 322 322 323 324 324 325 324 322 321 318 315 318 320 320 322 319 314 312 312 309 305 303 301 300 299 298 296 295 294 292 291 291 292 292 292 292 292 291 291 291 291 291 291 291 290 290 290 290 290 289 289 288 288 288 287 287 287 287 287 287 287 286 286 286 286 286 286 285
323 326 322 322 325 325 326 327 323 321 320 319 320 320 318 318 319 320 322 322 323 324 323 322 322 322 322 320 318 321 323 325 327 324 319 316 312 309 305 302 301 300 299 297 296 295 294 292 291 291 291 292 292 292 292 291 291 291 290 290 290 290 290 290 290 290 289 289 288 288 287 287 287 287 287 287 287 287 286 286 286 286 285 285 285 285
322 324 322 323 323 322 326 328 322 319 321 320 319 319 318 318 318 320 321 321 323 325 324 322 322 322 321 320 320 320 322 324 326 326 325 320 311 307 305 302 302 301 299 297 296 295 294 293 292 291 291 292 292 292 292 291 291 291 290 290 290 290 290 290 289 289 289 288 288 287 287 287 287 287 287 287 287 286 286 286 286 285 285 285 285 285
324 323 322 323 323 321 323 323 319 318 319 319 319 319 318 318 318 319 320 320 321 323 323 322 323 323 321 319 320 320 320 320 321 321 321 316 310 307 305 303 302 301 299 298 296 295 294 293 292 291 291 291 292 291 291 291 290 290 290 290 289 289 290 289 289 289 288 287 287 287 286 286 286 287 287 287 286 286 286 286 285 285 285 285 285 285
322 322 322 322 322 322 322 321 320 320 320 319 319 318 318 318 317 317 318 318 319 321 321 321 322 321 320 319 320 322 321 318 318 318 317 314 312 309 306 304 302 300 299 298 297 295 294 293 292 291 291 291 291 291 291 290 290 290 289 289 289 289 289 289 289 288 287 287 286 286 286 286 286 286 286 286 286 286 286 285 285 285 285 285 284 284
319 320 320 320 322 322 321 320 321 322 321 320 320 319 317 317 316 316 317 317 318 319 319 319 321 320 319 320 321 322 320 316 316 316 315 314 311 308 305 303 302 301 299 298 297 296 295 294 293 292 291 291 290 291 291 290 290 290 289 289 289 289 289 288 288 287 287 287 286 286 286 286 286 286 286 286 286 286 286 285 285 285 285 284 284 284
318 318 317 318 321 322 321 320 321 320 320 320 321 320 318 317 316 315 316 316 317 318 319 319 320 319 319 321 321 320 320 318 317 316 314 312 310 309 307 304 302 301 300 298 297 297 296 295 293 292 292 291 291 291 291 291 290 289 289 289 289 289 288 288 288 287 287 286 286 285 285 285 285 286 286 286 286 286 285 285 285 285 284 284 284 284
317 317 317 318 321 321 321 321 320 319 320 321 321 320 319 317 316 316 315 316 316 317 318 319 319 317 318 320 320 319 319 318 317 317 315 313 310 308 307 305 303 302 300 299 298 297 296 295 294 293 292 291 291 291 291 291 290 290 289 289 289 288 288 288 287 287 286 286 285 285 285 285 285 285 285 285 285 285 285 285 285 285 284 284 284 284
316 317 317 317 320 321 319 318 319 320 322 322 321 322 321 319 317 317 316 315 315 315 316 317 318 317 318 320 319 317 317 317 316 315 313 312 310 308 306 304 303 303 301 300 299 298 296 295 294 294 293 292 291 291 291 291 290 290 290 289 288 288 288 288 287 287 286 286 285 285 284 284 284 284 284 285 285 285 285 285 285 284 284 284 284 284
315 316 317 316 319 320 317 317 321 323 322 321 319 319 319 318 318 318 318 316 315 315 315 315 316 315 316 318 317 317 316 315 315 314 312 310 309 309 307 305 303 303 302 301 299 298 296 295 294 294 293 292 292 291 290 291 290 290 290 289 289 288 288 288 287 287 286 286 285 284 284 283 283 284 284 284 284 285 285 285 284 284 284 284 285 285
315 315 316 316 317 317 316 319 322 322 319 318 316 312 313 317 318 317 319 318 316 316 315 315 315 314 314 316 317 317 317 313 311 311 309 307 307 307 306 305 303 303 303 301 299 298 297 296 295 295 294 293 292 291 290 290 290 290 290 289 289 288 288 288 287 287 286 286 285 284 283 283 283 283 283 284 284 284 284 284 284 284 284 284 285 285
315 315 314 316 317 317 317 319 319 319 319 319 318 314 313 318 320 318 320 319 316 316 315 315 315 314 314 316 316 315 312 310 311 312 309 307 306 305 304 303 302 302 301 300 298 298 297 296 296 295 294 293 292 291 290 290 290 290 289 289 289 288 288 288 287 287 287 286 285 284 284 283 283 283 283 284 284 284 284 284 284 284 284 285 284 284
313 314 314 316 317 316 318 319 318 320 320 319 320 317 313 316 317 316 318 319 318 318 317 315 316 315 315 315 314 311 311 312 315 317 313 308 305 303 304 304 300 299 299 298 298 298 298 297 296 295 294 293 292 291 291 290 290 290 289 289 289 289 288 288 288 288 287 286 286 285 284 284 283 283 283 283 284 284 284 284 284 284 285 285 285 285
310 311 312 315 317 316 318 319 319 320 319 318 319 313 309 313 316 315 317 318 318 320 318 315 315 315 315 314 311 312 313 313 315 317 315 311 305 303 307 309 301 296 297 298 298 298 298 297 296 295 294 293 292 291 291 290 290 289 289 289 289 288 288 288 288 288 287 287 286 285 285 284 284 284 283 283 284 284 284 284 284 285 285 285 285 285
308 310 311 314 316 317 317 318 318 319 318 319 318 311 308 313 315 316 319 319 316 314 313 313 314 314 314 313 310 313 316 315 318 319 315 311 307 303 304 308 303 296 296 296 297 297 297 297 296 294 293 293 292 291 291 290 289 289 289 289 288 288 288 288 288 288 288 287 286 286 285 285 284 284 283 283 284 284 284 284 284 284 284 284 284 284
308 310 311 313 316 316 317 318 318 318 319 319 316 311 310 313 314 317 321 320 316 311 308 312 316 313 311 310 310 313 315 311 313 316 311 307 306 301 297 296 296 295 295 295 296 296 296 295 295 294 293 293 292 291 290 290 289 289 289 288 288 288 288 288 288 288 288 287 286 286 286 285 285 284 284 284 284 284 284 283 283 284 284 284 283 283
310 311 311 313 314 315 317 317 317 319 320 316 310 306 307 312 318 320 316 312 313 312 308 309 313 310 307 308 310 311 308 301 300 304 303 301 302 300 294 292 293 293 293 294 295 295 295 294 294 294 293 292 292 291 290 290 289 289 288 288 288 289 289 288 288 288 288 287 287 286 286 285 285 284 284 283 283 283 283 282 282 282 282 282 282 282
311 312 311 312 314 314 316 316 317 319 315 309 306 305 306 314 322 319 310 304 307 312 311 310 311 308 306 308 307 304 301 299 297 298 298 297 297 295 293 293 293 292 291 292 293 294 295 294 293 293 293 292 292 292 291 290 289 288 288 288 289 289 289 288 288 288 288 287 287 287 286 285 285 284 284 283 283 283 283 282 282 281 281 281 281 280
311 312 312 313 313 314 316 315 316 315 310 306 309 309 308 314 317 314 309 306 304 306 310 312 310 307 307 309 305 299 299 301 300 298 298 298 296 294 293 292 291 291 291 292 293 293 294 293 292 292 292 292 292 291 290 290 289 288 288 289 289 289 288 288 288 288 287 287 287 286 286 285 285 284 284 283 283 282 282 282 281 280 280 280 279 279
312 312 313 314 313 312 314 313 310 309 306 304 306 308 307 307 306 306 311 311 305 303 307 312 311 305 304 305 302 298 298 300 298 297 297 297 295 294 293 291 289 290 291 291 292 292 293 293 292 291 291 291 291 291 291 290 290 289 289 290 289 288 288 288 287 287 287 287 287 286 286 285 284 284 284 283 283 282 282 281 280 280 279 279 278 278
309 308 309 312 312 310 309 308 306 305 304 302 301 301 302 301 299 302 309 311 307 305 305 309 310 305 302 302 300 297 297 297 296 295 294 295 294 292 291 290 289 289 290 290 291 291 292 292 292 291 290 289 290 291 291 290 291 291 291 291 290 289 288 288 287 287 287 286 286 286 285 285 284 283 283 282 282 282 282 281 281 280 279 279 278 278
306 305 306 310 313 311 310 308 306 304 303 302 300 298 298 297 296 299 304 306 306 304 302 303 305 303 301 301 301 299 295 294 295 295 293 293 293 292 291 290 288 287 289 290 290 291 292 292 291 290 290 289 289 290 291 291 291 291 292 291 290 290 289 288 287 287 287 286 286 286 285 285 284 283 282 282 281 281 281 281 281 280 279 279 278 277
307 305 306 311 311 309 306 302 300 299 298 298 299 299 298 297 296 296 298 299 300 300 298 297 299 300 300 299 299 298 295 293 295 297 295 292 291 291 290 288 286 286 288 289 289 291 292 292 291 291 291 291 291 291 292 292 291 291 291 291 291 290 289 288 288 287 287 287 286 285 285 284 284 283 283 282 282 281 281 280 280 280 280 280 280 279
306 305 307 309 308 305 301 297 297 300 301 299 299 299 298 297 296 295 295 295 296 297 297 295 295 297 300 299 297 297 297 293 293 296 296 292 290 289 288 286 286 287 287 288 289 291 292 292 292 292 292 293 293 292 292 292 292 292 292 291 291 290 290 289 288 287 287 286 286 285 285 284 284 283 283 282 282 282 281 281 281 281 281 281 281 281
304 306 306 306 306 306 304 300 300 305 308 304 301 301 299 297 296 295 295 295 296 296 297 297 295 294 295 294 293 297 300 295 291 293 296 293 290 288 285 285 286 286 287 288 288 289 290 291 292 292 293 293 292 292 292 292 292 292 292 292 291 290 290 289 288 287 286 286 285 285 285 284 283 283 283 282 282 282 281 281 280 280 280 281 280 280
304 306 305 305 307 307 305 301 301 306 309 305 302 302 300 296 295 296 296 295 295 295 297 298 298 296 295 292 289 293 301 298 290 291 294 291 287 286 286 285 286 286 287 287 288 288 288 289 289 291 292 291 291 291 291 291 291 291 291 291 291 290 290 289 288 287 286 286 286 286 285 285 284 283 282 282 281 281 280 279 279 279 279 278 278 278
Wind_Speed
3 4 2 4 8 9 9 10 9 6 6 5 4 3 4 4 5 5 4 6 5 5 6 9 9 11 11 11 9 7 7 9 10 9 8 8 8 9 10 9 9 8 7 11 14 14 12 12 14 16 16 16 16 16 17 18 19 20 23 25 26 26 26 28 29 29 29 29 30 31 31 31 30 29 29 28 27 26 25 24 23 23 23 23 23 23
4 4 7 11 11 9 8 8 7 4 3 2 3 3 4 4 6 6 4 5 2 4 6 6 7 11 11 11 9 5 8 11 13 13 12 12 11 10 10 10 9 6 6 10 12 14 14 14 15 17 18 19 19 19 20 21 21 20 23 26 27 26 26 27 29 30 29 30 31 32 33 33 31 29 29 30 28 27 27 25 25 25 24 24 24 24
2 4 12 13 6 5 4 6 6 5 5 4 2 2 5 4 4 7 5 3 0 3 5 4 4 9 11 11 9 7 10 11 13 15 15 14 13 12 11 11 9 8 7 8 10 14 16 16 17 18 19 21 21 20 21 22 22 21 23 26 27 27 26 26 28 29 29 30 31 32 33 33 31 30 30 30 29 28 27 27 26 26 26 26 27 27
4 6 13 10 6 6 4 4 6 3 3 5 3 3 5 3 2 4 5 3 1 2 3 3 4 7 8 8 9 11 10 8 8 12 13 12 13 13 13 12 12 13 11 10 9 11 16 17 18 18 20 21 21 20 21 23 23 23 24 25 25 27 27 28 28 29 30 31 31 32 32 32 32 31 31 31 30 29 29 29 29 29 29 30 30 30
7 7 5 6 8 8 6 4 6 4 4 5 6 6 6 5 6 6 4 3 3 4 2 3 6 7 7 10 12 6 4 6 6 8 12 11 10 9 9 10 11 13 13 12 11 11 15 18 18 19 21 22 22 20 22 24 23 24 25 24 25 26 28 28 29 30 31 32 32 33 33 32 33 32 32 32 31 31 32 32 32 32 31 31 30 29
8 5 3 7 7 7 7 6 6 7 5 5 6 10 10 8 8 5 1 4 4 5 4 2 3 7 5 9 12 3 1 7 5 7 13 12 9 8 9 10 10 10 11 11 12 13 16 18 19 19 22 23 22 21 21 23 24 24 25 24 24 26 27 27 28 31 32 32 32 33 33 33 34 31 30 33 34 34 35 35 34 32 30 29 29 28
5 5 5 7 7 7 7 5 6 8 6 4 6 10 11 8 7 5 3 2 1 4 4 2 2 7 6 6 9 4 4 9 7 8 12 10 8 10 10 10 11 11 10 9 10 13 16 19 19 19 22 24 23 22 22 22 23 24 24 24 24 25 27 27 29 30 31 31 31 32 33 34 35 33 30 33 36 36 36 35 33 32 30 29 28 28
4 7 6 6 6 7 6 5 7 8 7 4 5 7 9 8 7 6 6 4 3 3 4 3 3 5 9 6 6 6 7 9 10 12 13 10 10 10 10 10 11 11 11 10 10 11 16 20 20 20 23 24 24 24 23 23 24 24 25 25 25 26 28 29 30 31 30 31 32 33 34 34 36 36 35 36 36 36 36 35 33 32 31 29 28 27
4 8 10 9 6 5 6 5 7 10 6 6 3 6 7 6 5 4 5 3 1 2 4 4 1 3 9 5 1 2 7 9 12 16 16 12 11 11 10 9 10 10 10 11 11 13 17 21 22 22 23 23 24 25 24 25 24 24 25 26 26 27 29 30 31 31 30 31 32 34 36 36 37 38 38 37 37 36 35 35 33 32 30 29 27 26
2 6 9 9 7 7 6 2 7 11 6 4 5 7 6 5 5 5 4 3 2 1 6 6 3 3 8 3 2 1 4 9 12 14 13 10 11 11 9 9 9 9 9 10 11 15 19 22 23 24 23 22 24 26 25 25 25 26 27 27 28 29 30 31 31 31 30 31 33 35 38 40 39 39 38 37 37 36 35 35 33 31 30 28 27 26
2 2 2 4 4 5 5 3 3 8 7 6 7 7 7 6 5 4 2 4 1 4 6 9 9 6 7 2 4 3 4 7 9 9 9 7 8 10 9 9 10 10 10 9 9 13 18 21 23 24 24 23 24 25 25 26 26 28 28 29 30 30 29 30 30 30 31 32 34 36 40 42 42 41 40 39 37 35 35 35 33 31 29 28 27 25
4 2 1 1 2 4 6 4 2 1 5 6 5 5 4 4 4 4 4 4 2 6 5 8 10 9 9 5 4 5 5 5 7 7 9 8 8 9 9 9 10 10 10 10 9 11 16 18 21 24 24 23 24 25 26 27 28 30 31 32 33 30 28 28 29 30 32 33 35 38 40 42 43 42 41 40 38 36 36 35 33 32 30 28 27 25
3 4 3 2 1 4 6 4 4 4 2 4 5 6 4 2 2 2 3 0 4 6 4 4 5 5 10 8 5 8 9 8 8 8 9 7 7 9 10 10 10 9 10 10 9 10 12 16 20 23 24 24 25 27 28 29 30 31 32 34 33 30 27 27 28 30 33 35 37 39 40 41 40 40 40 39 38 37 35 35 33 32 30 28 26 24
3 5 1 1 3 3 8 7 3 1 4 6 6 6 5 3 1 3 4 2 4 5 4 1 3 3 6 4 9 13 12 8 7 8 8 6 7 9 10 10 9 9 10 10 10 10 11 15 20 23 25 25 26 28 30 30 31 31 32 33 33 31 29 28 29 32 34 36 37 38 39 39 39 38 38 38 37 36 34 33 32 31 29 28 26 24
4 6 4 8 4 6 10 9 7 5 5 7 6 6 6 6 4 4 4 4 4 3 3 1 2 3 2 2 7 9 7 5 5 6 5 6 6 6 7 8 9 10 10 9 10 10 12 18 23 24 26 27 28 29 31 32 32 32 32 32 32 32 32 31 31 33 35 36 37 37 38 38 37 37 37 36 35 35 33 32 31 30 28 27 26 24
5 7 7 6 2 8 11 6 5 7 3 4 3 4 5 6 5 3 3 5 3 2 3 3 4 5 4 5 6 5 6 6 6 7 4 5 3 5 6 8 10 10 10 10 10 10 14 20 24 25 26 27 28 30 31 32 33 33 33 33 33 33 34 33 33 35 36 37 37 37 37 37 37 37 37 36 35 33 32 31 30 29 27 26 26 24
3 5 5 1 2 4 7 4 4 4 3 2 3 4 4 4 5 3 3 1 3 3 4 3 6 6 3 7 7 6 8 8 6 7 6 5 3 6 7 8 10 10 10 11 11 10 14 20 23 25 27 28 28 30 31 33 34 34 34 33 33 34 34 34 34 36 37 38 38 37 37 37 37 37 36 36 35 33 32 30 29 28 27 26 25 25
4 4 4 2 2 4 1 3 3 3 3 5 3 6 2 2 2 2 2 3 2 4 5 3 8 6 2 6 3 2 6 9 8 8 7 5 4 7 8 8 9 10 10 9 10 11 14 20 23 25 27 28 29 30 31 33 34 34 34 34 34 35 36 36 36 38 39 39 39 38 38 38 37 37 36 36 35 33 32 30 29 28 27 26 25 24
4 3 4 1 3 3 3 3 1 5 3 5 4 5 4 1 1 2 2 2 1 3 5 2 5 5 7 6 1 3 9 11 11 9 7 7 9 9 8 8 9 8 9 9 10 10 13 19 23 25 26 27 29 30 31 32 33 33 33 34 35 35 36 37 37 39 39 40 40 39 38 38 38 37 36 35 34 33 32 30 29 28 28 27 25 24
3 3 3 1 1 1 3 3 5 0 2 3 2 3 2 2 3 3 3 3 3 3 4 2 3 5 7 7 7 10 12 12 12 9 8 12 13 9 8 9 9 10 10 10 11 10 12 18 23 25 27 27 28 30 31 32 33 34 33 34 35 36 36 37 38 40 40 40 40 39 39 38 38 37 36 35 34 33 31 30 30 29 28 27 25 24
2 3 3 2 2 1 2 4 8 9 6 4 4 5 3 1 2 1 1 2 4 2 3 3 6 8 4 5 9 12 11 12 11 10 11 13 10 9 9 10 10 10 11 10 11 10 12 18 22 24 26 27 29 31 32 33 34 34 35 35 37 38 38 39 39 40 41 40 40 40 40 39 38 38 37 35 34 33 32 31 30 29 28 26 25 23
3 3 3 2 1 3 5 4 6 9 8 7 7 9 8 6 5 2 3 2 3 2 4 3 8 11 4 3 5 6 7 9 10 10 11 10 8 9 9 10 11 10 11 11 10 10 12 18 21 24 27 29 31 32 33 34 35 36 37 37 38 39 40 41 41 42 42 41 41 41 40 39 39 38 37 36 34 33 32 31 30 29 28 26 25 23
4 3 3 3 3 5 6 5 3 3 3 3 3 5 7 7 7 6 6 4 3 3 3 3 5 9 3 2 2 3 4 5 6 8 9 8 7 8 8 8 9 9 9 9 9 10 13 18 21 24 27 29 31 33 34 35 36 37 38 38 39 40 41 42 42 43 42 42 42 41 41 40 39 39 38 37 35 34 33 32 31 29 28 27 26 24
3 3 4 2 1 2 4 5 3 2 3 1 2 3 6 9 9 6 4 3 3 6 4 3 6 9 2 1 2 2 4 4 4 6 8 8 4 6 8 8 8 8 8 9 9 10 13 18 20 23 26 28 30 31 34 35 36 37 37 38 39 40 41 42 42 43 42 42 42 41 41 41 40 40 39 37 36 35 34 33 32 30 29 28 27 25
4 3 3 2 1 3 3 2 2 2 2 3 4 5 7 10 9 3 1 2 3 8 8 5 10 10 2 3 3 3 4 4 5 5 6 7 5 5 7 7 8 9 9 10 10 10 13 16 18 21 24 27 28 31 34 35 36 37 38 39 40 40 41 42 43 43 42 42 42 41 41 41 41 40 39 38 37 35 34 34 33 31 30 29 28 26
5 4 6 6 7 7 6 6 5 3 3 2 3 6 9 11 12 7 2 4 7 7 8 7 14 10 2 3 3 3 4 4 7 5 4 6 6 6 7 8 9 9 10 12 12 11 11 13 16 21 25 27 30 32 34 35 36 37 38 39 40 40 41 42 42 43 42 42 42 42 41 41 42 41 40 38 37 36 35 34 33 32 31 29 28 27
2 3 9 12 12 13 10 5 4 7 7 7 9 11 12 12 12 9 5 8 7 2 5 13 16 14 11 6 5 6 4 4 7 5 5 6 6 6 7 7 8 8 9 10 10 10 11 13 16 22 26 28 31 33 34 36 37 38 38 39 39 40 41 42 42 43 42 42 42 42 42 42 42 41 40 39 38 37 36 34 33 32 31 29 28 27
4 3 10 13 15 17 10 3 6 11 12 14 14 12 13 12 12 12 12 12 6 4 10 16 11 13 21 15 11 12 7 5 8 7 7 7 6 6 6 6 8 9 9 10 11 13 14 14 15 20 25 28 29 31 33 34 36 37 38 39 39 40 42 42 43 43 43 42 42 43 43 42 41 41 40 39 38 37 36 35 33 32 30 29 28 27
5 7 9 10 15 19 11 4 6 8 8 10 12 13 14 15 16 18 19 17 10 8 17 16 9 14 23 17 12 11 8 9 10 7 5 4 5 6 7 9 11 11 11 13 14 15 16 15 15 19 24 26 28 30 31 32 33 35 36 38 39 41 42 43 44 43 43 43 43 43 43 42 41 41 40 40 39 39 37 36 35 33 31 30 29 28
4 5 4 6 11 17 13 6 7 6 4 6 10 13 15 18 21 21 19 19 16 15 20 18 13 19 20 13 10 8 8 9 5 2 3 5 6 7 8 10 11 11 12 14 15 14 14 13 13 17 21 24 27 29 29 30 32 34 35 37 38 40 42 43 43 43 43 43 42 41 41 41 41 41 41 41 40 39 38 37 36 34 32 31 30 28
3 2 1 3 5 13 14 8 7 7 7 7 9 12 17 18 17 15 15 16 14 16 21 19 18 20 13 6 7 6 4 3 3 5 7 7 7 7 8 9 10 10 11 11 11 11 10 11 12 17 21 24 27 28 30 31 33 34 34 35 37 39 40 42 42 42 42 42 40 40 40 42 42 42 42 42 41 40 39 38 36 35 34 33 32 29
3 1 2 3 4 10 10 8 8 7 5 7 12 18 20 14 9 11 13 14 14 16 18 16 15 18 10 4 4 4 6 7 9 9 8 7 8 10 10 11 10 10 10 10 10 11 13 14 15 18 23 26 28 30 32 33 32 33 35 36 37 38 39 41 41 41 41 40 39 39 40 41 42 43 43 43 42 41 40 39 37 37 36 35 32 30
5 4 2 3 5 8 5 6 7 4 3 7 14 20 18 12 11 13 13 15 16 15 14 13 15 18 11 5 4 6 8 10 10 8 8 8 9 10 12 12 12 11 11 12 13 14 14 14 16 19 24 27 30 32 33 33 32 34 35 36 36 36 38 40 39 39 38 38 38 39 40 41 42 43 43 43 43 42 41 40 39 39 38 36 33 31
6 7 5 4 4 5 4 6 6 5 8 9 6 7 11 15 18 17 16 18 19 15 13 14 15 17 11 6 9 12 10 10 10 10 10 8 9 10 12 12 12 12 12 12 13 13 12 14 18 22 25 27 29 30 29 30 31 31 31 32 32 35 37 38 37 37 36 37 38 38 39 41 42 42 43 43 42 42 41 41 41 40 38 36 34 32
8 8 5 3 2 2 4 6 4 8 10 6 2 1 6 13 17 19 19 20 20 17 17 18 19 19 15 10 10 10 10 10 8 7 7 6 8 10 11 11 11 12 11 11 11 11 12 16 20 23 26 28 29 29 29 30 30 29 28 30 32 33 35 35 35 34 35 36 37 37 38 39 40 41 41 42 42 42 42 42 42 41 39 37 35 33
9 7 3 3 3 1 3 6 8 5 3 4 3 3 1 3 7 10 13 18 19 17 17 19 22 22 18 14 10 7 6 5 3 4 3 4 7 8 9 10 11 11 11 11 12 14 17 22 25 26 27 28 29 30 31 32 32 30 30 31 32 33 34 34 34 33 34 36 37 37 39 39 40 40 41 42 42 42 43 43 42 41 40 37 35 33
8 7 3 3 4 3 3 6 4 4 8 9 5 3 4 6 8 9 8 13 15 15 16 17 20 21 19 14 9 4 1 1 3 5 3 5 6 5 3 4 6 8 9 12 15 18 21 24 25 25 25 26 29 32 33 33 33 32 31 32 33 34 35 35 35 36 37 38 38 38 39 40 40 40 41 43 44 44 45 44 43 41 40 38 36 35
6 7 6 6 5 4 5 6 3 3 9 10 5 5 6 6 7 9 6 9 9 11 14 16 18 20 17 11 6 4 5 3 6 7 4 5 5 3 1 2 3 7 9 11 14 14 16 19 20 22 24 27 29 32 33 34 34 34 33 33 34 35 36 37 39 39 39 39 38 38 39 40 41 42 43 44 45 46 46 44 43 42 41 39 38 37
4 3 5 6 4 4 5 5 5 6 7 5 4 4 4 5 6 8 1 7 6 6 9 12 15 16 12 8 6 7 6 6 7 5 4 5 5 5 5 4 2 4 7 10 13 14 16 18 19 21 24 26 29 31 33 34 36 35 34 35 35 35 36 39 41 40 39 38 37 38 40 41 42 43 43 45 46 46 46 45 44 43 42 40 39 38
4 2 4 6 6 6 7 6 4 5 5 5 6 4 3 5 8 9 1 7 6 4 5 8 10 10 7 8 8 8 8 8 6 5 5 5 5 4 4 4 2 4 7 9 13 15 17 19 20 22 25 28 30 31 32 34 35 35 34 33 33 34 37 40 39 37 37 36 36 38 40 42 43 44 44 45 45 45 45 45 44 43 42 41 40 39
2 3 4 7 8 8 9 7 4 4 5 6 6 6 6 6 5 6 7 6 4 5 5 6 7 7 7 9 7 7 6 4 3 4 4 5 5 3 3 5 6 8 10 12 13 15 17 20 21 23 25 26 27 29 32 34 33 32 31 29 30 35 39 38 35 34 36 36 37 39 41 42 44 44 44 44 44 43 43 43 43 43 43 42 41 40
3 3 3 6 8 7 7 7 5 5 5 5 6 4 6 6 4 7 7 2 4 6 4 4 6 6 7 8 6 4 3 2 3 4 5 6 6 5 5 7 9 9 11 13 14 15 18 18 17 18 19 20 23 27 31 32 31 29 28 28 32 38 37 33 32 34 36 36 38 39 40 42 43 42 42 42 41 41 41 41 41 41 41 41 40 40
6 5 3 5 6 3 3 6 5 5 4 11 12 4 4 5 5 5 3 1 2 4 4 4 5 5 6 6 4 3 4 4 4 5 5 5 5 6 5 6 8 9 10 12 12 14 17 16 15 16 16 17 21 25 29 31 30 27 27 30 35 36 33 31 32 33 34 36 37 38 39 40 40 40 40 41 41 41 41 40 40 39 39 39 39 38
5 5 4 5 6 4 5 7 5 2 5 12 11 6 6 6 4 4 5 3 2 3 4 4 4 5 7 6 5 5 5 4 4 4 5 4 4 5 4 5 7 9 10 11 12 14 16 16 15 14 14 16 19 23 27 30 29 27 28 32 33 30 28 29 30 30 32 34 35 36 37 37 38 39 40 40 40 40 39 39 38 38 37 38 38 37
6 6 4 4 5 4 4 5 2 1 4 6 3 1 4 4 2 4 6 4 3 4 4 4 4 5 6 6 6 5 3 3 4 4 4 5 4 4 4 5 7 9 10 11 13 13 14 16 17 16 15 16 18 21 24 27 28 28 29 30 27 25 26 27 27 28 31 32 33 34 34 35 36 37 38 39 39 39 39 39 38 37 37 37 37 37
3 3 2 2 2 2 2 2 1 1 3 4 1 0 2 2 1 4 5 3 4 4 4 4 5 5 6 7 6 4 3 5 5 4 4 5 4 4 5 5 7 9 11 12 13 13 13 15 16 17 16 16 18 20 22 24 25 25 25 25 23 23 23 24 25 27 28 29 31 31 32 32 34 35 36 37 38 39 39 39 39 39 38 38 38 38
2 2 2 2 4 4 3 3 3 2 4 4 1 0 2 2 1 2 3 3 4 5 4 4 5 6 6 7 7 6 5 6 6 4 4 5 5 5 5 5 7 9 11 13 14 14 15 16 16 16 17 17 17 18 19 21 21 21 19 19 19 20 20 21 23 24 26 27 28 29 30 32 33 33 34 35 36 37 37 38 39 39 39 39 39 39
2 4 3 2 5 4 2 3 2 3 4 3 2 2 3 3 2 2 2 2 4 5 3 2 4 6 6 5 7 8 7 6 7 6 5 4 5 5 5 6 9 10 10 12 15 15 16 17 17 17 17 17 18 18 18 18 19 19 17 16 16 17 18 19 21 22 24 25 27 28 29 31 32 33 34 35 36 37 38 39 39 40 42 44 43 43
4 6 4 3 3 2 1 3 2 2 4 4 5 4 3 3 3 3 3 4 6 6 5 4 3 3 6 6 7 8 8 7 6 7 7 6 5 5 6 7 10 11 11 14 16 17 17 18 18 19 19 18 18 18 18 17 18 18 17 16 15 15 17 19 20 21 22 24 25 27 28 29 30 32 33 34 36 38 39 40 41 43 45 46 45 45
4 6 4 4 4 3 3 5 5 2 1 5 7 6 5 4 5 5 3 4 5 6 7 6 4 3 4 6 6 8 9 7 6 6 7 6 6 7 9 10 11 11 12 14 15 15 15 16 17 18 18 18 18 18 17 17 17 17 17 17 16 16 17 19 20 21 22 23 24 26 27 28 30 32 33 34 36 37 39 39 40 42 43 43 43 43
4 5 5 5 5 4 6 9 7 3 3 5 7 7 6 5 6 6 6 6 6 6 7 8 7 5 4 3 4 7 8 7 7 7 6 5 6 9 11 14 14 14 14 15 16 16 15 14 15 16 17 17 18 19 18 18 19 19 19 19 19 19 19 20 21 22 23 24 25 26 28 29 31 32 33 35 35 36 37 37 38 40 41 41 40 40
Wind_Direction
106 107 159 200 213 213 202 196 202 192 157 147 145 161 201 223 265 255 260 270 181 160 239 220 222 242 246 254 246 208 196 219 233 230 222 213 209 209 205 203 197 194 194 182 177 179 183 180 170 166 165 160 152 152 154 153 152 155 158 156 150 148 149 149 146 143 142 139 134 130 127 124 122 124 125 124 125 125 125 125 125 124 122 122 121 120
98 139 215 224 215 206 198 196 202 191 170 178 173 226 257 225 252 260 249 283 177 171 259 240 230 252 250 254 255 186 181 219 221 219 223 215 212 212 206 203 193 181 176 175 179 179 179 180 173 168 167 163 155 151 153 151 149 151 157 157 151 148 149 149 148 145 142 141 140 135 130 127 124 124 125 123 124 124 124 124 123 121 121 120 119 118
144 206 235 230 187 151 179 179 182 203 215 230 221 242 266 240 265 280 269 297 146 177 262 270 240 258 257 253 250 206 199 223 217 213 220 214 211 210 202 198 184 173 175 180 184 179 178 178 173 171 169 165 159 157 158 156 156 157 158 158 154 154 154 151 150 147 143 140 139 136 132 131 128 125 125 125 125 126 125 124 122 121 120 119 117 116
190 241 241 222 140 143 197 176 158 185 230 222 213 220 252 244 230 275 285 303 282 222 256 284 282 268 266 264 251 226 216 234 228 220 227 219 213 211 202 196 184 179 179 179 184 181 178 178 178 175 171 167 162 161 164 162 163 164 163 162 160 160 158 155 152 148 144 140 136 134 132 132 130 126 126 125 125 127 125 123 122 121 120 118 116 114
216 242 235 163 153 176 197 188 163 175 242 234 212 207 229 232 214 235 281 320 328 331 330 326 310 276 250 251 253 238 214 252 237 216 231 231 220 210 197 197 191 183 179 176 179 182 179 180 182 179 173 170 166 166 169 168 169 167 165 167 165 162 160 157 154 150 147 142 137 132 128 127 126 124 127 126 124 125 124 122 121 120 119 118 115 114
240 237 106 121 161 178 182 202 189 181 218 258 224 208 215 220 219 226 333 21 356 328 327 8 302 278 258 243 254 269 191 245 231 210 230 230 215 201 195 196 191 185 184 178 176 178 179 179 181 180 176 173 171 173 173 173 173 171 168 169 168 165 162 161 157 153 151 148 144 140 134 129 126 124 126 127 126 125 125 123 122 120 119 118 116 115
231 203 142 133 156 170 184 220 217 183 184 259 236 205 204 200 196 192 150 91 262 264 297 52 182 271 283 240 239 224 208 245 246 237 239 229 212 207 202 196 185 183 183 179 177 175 177 179 180 181 179 177 175 176 177 176 175 174 172 171 171 168 163 162 159 155 153 150 149 148 144 139 135 131 128 129 129 128 126 125 124 122 121 119 117 116
173 182 186 162 146 163 188 224 219 175 162 242 244 180 178 183 193 192 171 184 228 251 316 9 117 267 279 252 227 189 197 253 261 253 249 232 217 214 208 198 186 184 178 173 176 177 179 182 181 180 179 179 177 176 179 178 176 176 175 172 172 168 162 161 160 158 158 156 152 149 145 141 138 135 131 131 130 129 129 128 126 124 122 121 118 116
147 174 194 184 171 189 202 212 185 155 168 242 212 139 147 162 172 150 141 174 298 15 297 299 107 262 271 266 324 176 201 248 255 249 248 232 217 215 208 197 184 182 180 175 177 180 182 182 182 179 177 178 177 176 179 178 176 177 175 172 170 167 163 162 162 161 161 160 157 152 146 140 137 136 134 133 132 132 132 130 128 126 124 122 118 116
146 192 193 176 185 206 203 205 166 161 191 215 128 97 74 77 79 78 107 120 43 327 240 238 178 241 268 229 99 64 203 234 244 248 250 231 214 211 199 188 180 178 183 183 181 179 180 180 180 177 174 176 177 177 179 178 176 176 173 171 169 167 165 164 165 165 162 161 159 155 150 143 139 137 136 135 135 135 135 132 130 128 126 123 120 117
314 264 194 168 188 189 148 94 164 175 173 136 100 67 48 35 40 45 55 83 34 266 226 209 189 205 273 253 157 192 203 218 230 250 263 235 206 203 191 184 182 180 181 181 177 174 175 177 177 175 174 175 175 175 177 176 175 175 172 170 167 165 166 167 167 167 163 161 160 157 153 148 144 142 141 140 138 138 137 134 132 131 129 126 123 120
330 319 252 227 172 121 99 82 31 111 137 116 90 84 74 352 11 20 358 49 233 256 224 208 192 192 242 255 213 240 259 236 218 235 256 242 208 199 191 187 185 181 178 172 170 169 168 170 174 174 173 173 173 173 174 172 172 171 169 168 164 163 166 169 170 169 165 162 159 157 154 151 148 147 146 144 143 142 140 138 136 135 132 129 127 124
284 240 249 309 214 136 116 106 34 17 89 112 100 111 120 317 359 342 309 3 229 263 268 215 181 204 244 245 236 258 268 250 222 227 248 244 215 201 192 188 184 178 175 171 170 170 169 170 173 174 173 173 172 172 172 170 169 169 168 167 165 165 168 170 172 170 166 162 159 157 155 153 150 150 149 147 146 145 144 141 139 137 135 132 130 127
262 291 293 145 268 191 156 164 172 200 192 170 146 144 159 167 183 247 262 274 255 271 299 215 165 247 277 259 227 236 249 249 234 234 242 239 223 209 196 184 176 174 176 176 173 172 174 174 173 174 174 174 174 173 172 172 172 171 170 171 169 168 170 172 173 172 167 162 160 158 157 155 153 152 152 150 149 148 146 143 141 139 137 134 132 131
215 287 208 178 214 192 182 190 174 142 168 190 165 151 172 169 172 210 215 230 252 281 299 260 183 202 220 259 239 240 264 276 261 255 249 245 231 198 178 169 168 177 179 178 176 175 177 175 174 176 176 176 175 175 174 174 175 174 174 175 173 170 171 173 174 173 168 164 161 160 159 157 157 156 155 153 152 149 147 145 142 140 139 137 136 135
196 266 234 203 190 172 185 198 131 111 150 221 140 131 197 187 172 207 203 183 181 290 281 219 224 221 207 256 260 256 280 277 278 292 281 252 213 149 162 173 175 181 180 178 179 178 178 176 176 177 178 179 176 175 176 177 178 178 176 177 176 173 173 175 174 174 170 166 164 163 162 161 160 160 158 156 154 151 149 147 144 142 142 141 140 139
176 278 269 267 356 182 186 171 134 146 183 178 144 183 212 169 153 203 265 82 96 256 260 197 243 281 311 275 252 217 247 265 287 290 269 250 194 163 185 186 183 185 182 182 181 177 176 175 179 181 180 179 177 176 178 179 181 181 179 178 176 174 174 175 175 175 172 169 166 166 165 165 165 163 161 158 155 153 151 149 147 146 146 145 144 143
173 260 279 148 207 256 215 117 70 23 123 131 181 202 177 69 97 137 247 346 43 254 266 214 240 271 272 271 308 116 232 257 267 260 256 259 214 197 202 191 188 188 180 180 176 173 176 177 181 183 182 182 179 178 179 181 182 183 182 181 179 176 175 176 177 175 174 172 170 169 169 169 168 167 164 160 157 155 153 152 152 151 150 149 148 147
167 232 289 102 192 295 9 125 80 1 74 130 181 182 134 136 223 122 172 232 194 248 279 257 250 257 216 225 309 158 215 234 242 241 244 244 221 208 204 189 187 183 175 178 178 176 180 181 183 183 183 183 180 179 180 181 182 183 184 184 182 180 177 177 177 176 175 175 173 173 173 172 171 169 166 162 159 158 157 156 156 155 154 153 152 151
146 207 269 341 251 335 24 167 189 242 43 66 118 155 124 143 182 168 170 180 164 224 278 298 288 257 216 190 184 204 212 215 224 226 231 237 224 207 197 187 186 185 183 185 183 183 182 182 184 183 182 182 179 179 180 181 183 184 184 184 181 180 177 176 177 176 175 176 176 175 175 175 174 172 169 165 162 162 161 160 159 159 157 156 155 155
127 213 238 329 348 179 196 206 190 180 170 160 156 169 189 136 119 169 199 144 137 175 229 264 280 268 232 168 187 206 210 207 211 212 224 236 223 199 195 190 189 188 187 189 183 182 181 180 183 182 181 181 179 180 182 182 183 184 184 184 181 178 177 176 177 176 176 178 178 177 177 178 177 174 171 168 166 165 164 163 162 161 160 159 158 158
171 198 180 169 247 208 229 252 215 193 182 181 187 189 187 169 145 177 234 196 149 193 189 191 271 270 236 164 194 205 205 209 212 211 227 239 212 199 203 192 189 189 187 189 183 179 180 178 178 178 178 180 179 181 183 182 183 184 185 184 181 179 178 177 177 178 178 179 180 180 180 180 179 176 173 170 169 168 167 166 165 164 163 162 161 162
151 131 157 193 213 215 243 285 266 203 155 145 199 191 174 176 175 182 216 208 158 227 201 122 276 274 241 168 233 237 231 240 234 217 232 247 213 196 206 192 187 191 185 183 180 178 180 178 176 177 178 181 182 182 182 183 184 185 185 183 181 180 180 179 179 180 180 181 182 183 183 182 181 178 175 173 172 171 169 168 167 167 166 165 164 165
125 151 197 223 305 303 301 317 345 34 82 113 243 179 170 198 200 187 200 173 159 223 201 123 258 264 285 285 260 272 270 273 267 231 231 252 231 186 194 188 182 187 181 178 177 174 174 175 176 179 181 184 184 183 183 184 185 185 185 184 183 182 181 180 180 181 182 182 183 184 184 183 181 179 177 176 175 173 172 170 170 170 170 169 168 167
175 183 178 175 280 326 326 296 289 316 184 201 218 192 191 201 196 177 78 107 208 221 174 165 247 251 310 325 307 347 326 290 270 249 232 245 239 200 189 179 180 184 178 176 175 172 174 175 180 184 185 185 185 185 185 185 186 186 186 186 185 184 182 181 182 182 183 183 184 185 185 184 182 180 179 178 176 175 174 173 173 172 173 172 170 169
179 172 166 182 212 224 223 219 216 195 174 207 204 186 197 200 190 189 190 196 232 219 154 191 245 254 329 330 301 332 335 291 274 271 252 241 231 208 190 181 182 183 181 182 177 174 178 179 184 187 187 187 187 187 187 186 186 187 187 187 187 185 183 182 183 183 183 184 185 185 185 184 183 181 180 180 178 177 177 176 175 175 175 175 173 171
142 187 193 197 213 223 222 217 172 136 149 206 206 189 198 204 194 193 210 217 217 167 182 221 238 258 268 253 253 274 266 260 274 282 272 253 235 214 199 188 184 181 183 182 175 175 180 184 190 190 190 190 189 189 188 187 187 187 187 188 187 186 184 183 183 184 184 186 186 186 186 186 184 182 182 181 180 179 179 178 178 178 177 177 175 174
109 224 216 207 222 231 224 177 158 160 175 201 201 192 200 201 191 196 214 218 178 132 242 238 216 248 261 249 242 258 253 244 255 252 249 242 221 205 188 176 183 185 181 180 182 185 186 188 192 192 192 192 190 190 190 189 188 188 188 188 187 186 185 184 184 184 185 186 186 187 188 186 185 184 183 182 181 181 180 180 180 180 179 179 179 178
147 216 221 206 229 240 229 149 156 177 180 192 196 197 201 198 198 205 215 219 192 190 245 247 193 224 253 254 245 246 233 232 239 235 231 211 186 184 179 184 193 189 184 187 191 193 191 192 192 191 192 192 190 191 190 189 189 189 189 189 187 187 186 185 185 185 186 187 188 189 188 186 185 185 185 184 183 183 183 182 181 181 182 183 183 182
170 215 209 187 228 248 241 188 166 187 182 190 201 204 205 206 206 208 215 221 215 219 242 250 239 243 253 253 242 232 217 225 226 174 179 185 183 187 189 198 203 195 193 196 197 197 194 194 193 190 191 192 192 191 189 188 189 189 190 190 188 188 187 186 186 186 187 189 189 189 187 186 186 186 186 186 186 185 185 184 183 183 184 186 187 184
194 209 102 133 221 254 248 210 181 198 208 219 225 220 218 216 212 213 220 223 222 230 241 247 254 259 255 222 225 224 173 168 177 190 209 201 183 183 193 208 210 202 205 205 199 197 194 192 192 191 193 196 195 192 190 190 191 190 191 191 190 189 187 187 187 188 189 190 190 189 188 187 188 187 188 188 187 187 187 186 185 185 187 190 189 185
173 185 45 99 207 251 245 209 201 209 216 244 252 241 230 215 204 213 218 218 215 223 237 243 250 256 246 166 190 202 163 192 213 211 215 207 184 181 194 207 208 202 204 202 197 196 196 196 195 194 195 195 194 194 194 192 190 190 191 192 192 191 188 189 189 190 191 191 191 190 189 189 189 189 189 189 189 189 189 187 187 189 191 192 190 187
156 164 160 157 208 251 237 174 177 179 190 237 245 242 229 201 199 216 221 224 218 214 225 230 235 249 246 168 191 220 200 215 225 209 207 210 195 190 197 200 198 197 197 197 198 199 198 198 199 199 198 196 196 197 197 193 191 192 193 192 192 191 190 191 191 192 193 192 192 192 191 190 190 190 190 190 191 191 190 190 191 193 194 194 190 189
167 176 192 180 199 238 195 128 131 184 222 235 238 226 207 193 200 212 220 225 221 214 224 234 241 253 251 201 217 231 217 214 221 215 210 199 186 194 204 201 194 193 194 195 198 199 196 195 198 200 201 200 200 199 197 196 195 195 194 192 191 192 192 193 193 193 194 195 195 195 193 192 192 191 191 191 192 193 193 194 195 195 196 195 192 191
175 187 196 179 183 212 140 124 174 218 227 245 347 341 213 199 199 209 223 230 224 218 227 239 248 253 248 233 231 234 227 224 231 238 232 208 189 191 198 199 194 190 190 191 193 196 197 195 195 197 199 200 199 197 195 197 196 194 193 192 193 194 194 195 195 196 197 197 198 197 195 194 193 193 192 193 194 195 196 197 199 199 198 197 195 193
171 187 189 171 188 160 130 185 219 247 280 283 316 322 265 156 173 204 234 243 233 220 221 232 242 247 247 245 240 237 239 241 271 299 269 220 210 197 196 203 197 188 187 187 189 194 196 197 197 197 197 196 194 194 195 196 194 192 192 193 193 194 196 197 198 199 199 200 200 199 197 196 195 194 194 195 196 198 200 201 201 201 200 199 198 197
168 178 183 197 203 186 197 222 238 328 303 268 253 220 182 159 163 180 223 251 236 216 215 226 237 243 246 244 236 221 128 93 293 291 261 220 222 210 204 215 192 185 191 191 196 201 202 201 201 198 194 190 190 193 194 194 192 191 191 192 193 195 197 198 201 203 203 203 202 201 200 198 197 196 196 197 198 200 202 203 203 203 202 201 201 200
182 185 186 202 209 188 211 236 237 268 263 254 238 210 193 181 170 165 203 258 234 201 206 218 230 239 241 235 210 143 116 170 246 264 253 223 213 181 193 258 188 188 199 196 196 200 201 200 198 195 192 189 191 195 194 192 191 190 190 192 194 196 197 200 204 205 205 205 204 202 202 201 200 200 200 200 202 203 204 205 205 205 205 204 204 204
202 204 186 199 208 190 207 229 218 225 245 238 215 211 189 170 137 116 140 270 241 201 204 208 224 237 231 205 170 139 149 213 233 241 234 213 184 172 197 224 194 184 199 198 195 194 194 193 190 189 190 189 192 195 193 191 191 190 192 195 195 196 199 204 207 207 206 207 206 204 204 205 205 205 204 204 205 205 206 207 208 208 208 208 208 209
184 187 190 206 213 202 210 226 228 237 249 221 201 203 188 164 126 109 182 261 249 241 220 194 215 232 199 168 163 159 184 214 212 209 213 185 154 161 184 188 174 172 181 188 194 193 187 182 179 180 185 191 193 193 191 190 190 191 195 197 196 198 205 208 209 208 208 209 208 207 208 208 209 209 209 209 209 208 209 210 210 210 211 211 211 212
180 192 196 210 217 212 215 229 244 249 240 213 196 186 164 136 124 166 218 235 213 226 227 183 195 209 173 162 174 183 199 210 178 176 173 144 133 120 114 137 154 161 164 167 172 172 168 170 176 180 186 191 192 189 189 189 189 192 196 196 197 205 211 211 209 208 210 210 210 211 211 212 212 213 213 214 213 212 212 212 212 213 213 213 213 214
179 188 196 212 218 219 223 229 242 258 235 167 141 162 161 147 183 213 219 207 171 192 210 183 184 187 167 164 174 175 162 119 119 142 141 139 144 139 135 142 142 139 142 146 150 155 157 161 170 176 182 188 188 189 190 188 189 193 194 195 204 212 213 212 211 211 211 211 212 213 214 214 215 215 216 217 216 215 215 215 215 216 216 215 214 215
169 164 191 209 202 201 226 219 224 259 216 141 125 135 206 198 207 198 161 119 184 175 168 172 180 178 166 155 142 124 113 93 88 103 111 117 123 125 134 139 130 123 123 128 139 153 155 154 161 170 176 183 188 190 190 189 189 191 193 202 212 216 214 213 214 213 212 213 214 215 216 216 217 217 217 218 218 218 218 218 218 218 218 217 217 217
176 170 192 208 190 171 203 214 210 222 183 153 141 165 199 194 194 166 139 142 207 187 168 170 183 187 174 153 135 120 98 84 92 102 103 102 105 113 115 111 116 121 123 128 138 151 155 152 153 160 168 178 185 189 191 192 190 190 198 210 216 215 213 215 215 214 214 215 216 217 218 218 218 218 219 220 220 219 219 219 219 219 219 219 219 218
206 189 176 189 192 181 195 215 234 251 178 164 139 167 172 158 173 163 136 130 181 196 176 167 178 181 161 139 132 125 110 127 137 119 112 122 128 129 126 125 131 132 131 134 140 149 156 154 151 153 159 171 182 188 192 195 193 194 204 214 217 214 214 215 213 214 215 216 217 218 219 219 219 220 221 221 220 219 219 220 220 220 220 221 220 220
232 203 140 141 186 231 248 209 220 306 201 168 86 16 155 129 165 163 129 121 174 180 167 167 168 159 150 143 137 134 151 157 143 117 119 138 143 138 130 131 136 135 137 141 144 150 155 152 151 154 155 164 177 184 190 195 198 203 211 216 215 216 217 215 214 215 216 217 219 220 220 220 220 220 221 221 222 222 223 223 222 222 221 222 221 222
269 187 134 150 185 201 224 197 173 246 228 187 122 160 164 129 131 160 144 155 164 155 162 174 154 141 147 148 142 145 158 155 143 140 151 154 159 165 155 146 147 149 152 154 154 155 156 153 154 158 159 165 175 182 188 195 202 210 216 217 217 218 218 216 216 217 217 218 219 220 220 220 220 220 220 221 222 222 224 225 225 224 223 222 222 221
207 159 153 204 199 187 226 247 246 288 273 232 207 200 173 138 89 74 87 131 127 115 115 127 128 137 147 147 142 145 153 160 156 156 167 178 176 173 169 165 162 159 159 161 162 163 164 164 165 167 171 175 178 183 190 196 202 210 215 218 219 218 216 216 217 218 219 220 220 220 221 221 222 221 221 222 223 223 224 225 225 225 227 228 227 225
147 158 166 176 172 154 308 261 248 347 331 278 253 243 219 174 132 88 71 102 114 111 102 81 78 135 151 152 148 142 148 174 180 165 166 178 179 175 176 172 168 165 165 169 173 174 174 175 176 177 181 183 183 186 191 197 202 209 214 217 219 218 216 217 217 217 219 220 219 221 222 222 223 224 224 225 226 227 228 229 230 230 233 235 235 234
153 172 167 139 158 191 205 192 179 144 203 236 233 227 215 178 140 122 117 128 137 143 136 111 73 69 116 140 151 146 152 177 188 171 171 181 180 176 170 162 162 169 174 175 178 181 183 185 185 185 186 187 187 189 193 197 202 207 212 216 219 219 218 217 214 214 217 218 220 222 223 223 224 225 226 227 228 229 230 231 233 234 236 238 238 238
175 181 170 156 183 214 192 178 175 158 174 209 211 202 192 168 152 160 170 165 163 167 152 131 117 107 108 131 159 156 158 173 178 169 169 177 176 172 169 166 167 172 177 180 182 186 190 192 194 196 195 193 193 195 198 202 204 207 211 216 219 221 221 218 214 213 216 220 223 225 225 225 225 226 226 227 228 229 229 230 232 234 236 238 239 239